Location: Staunton
(38.1490°N, 79.0720°W)
Time: 17:46:13
(UTC-04:00)

ISS - Pass Details

Date: 22 March 2017
Orbit: 399 x 409 km, 51.6° (Epoch: 26 March)

Event Time Altitude Azimuth Distance (km) Brightness Sun altitude
Exits shadow 04:57:40 21° 47° (NE) 990 -1.2 -27.3°
Drops below altitude 10° 04:59:38 10° 82° (E) 1,470 -0.1 -26.9°
Sets 05:02:01 0° 98° (E) 2,328 0.9 -26.5°
